| time (UTC) | temp F | wind direction | speed MPH | gust MPH | rain 1hr in | rain 24hr in | rain mn in | humidity % | barometer mb |
| 20260506015651 | 49 | 192 | 2.0 | 10.0 | 0.00 | 0.00 | 0.00 | 82 | 1006.4 |
| 20260506014841 | 49 | 210 | 1.0 | 10.0 | 0.00 | 0.00 | 0.00 | 82 | 1007.3 |
| 20260506014150 | 49 | 208 | 2.0 | 10.0 | 0.00 | 0.00 | 0.00 | 82 | 1006.1 |
| 20260506013320 | 49 | 199 | 2.0 | 10.0 | 0.00 | 0.00 | 0.00 | 82 | 1007.1 |
| 20260506012651 | 50 | 227 | 0.0 | 10.0 | 0.00 | 0.00 | 0.00 | 82 | 1006.0 |
| 20260506011818 | 50 | 180 | 0.0 | 4.0 | 0.00 | 0.00 | 0.00 | 82 | 1007.0 |
| 20260506011151 | 50 | 163 | 0.0 | 10.0 | 0.00 | 0.00 | 0.00 | 81 | 1005.8 |
| 20260506010319 | 50 | 206 | 2.0 | 8.0 | 0.00 | 0.00 | 0.00 | 81 | 1006.6 |
| 20260506005651 | 50 | 208 | 0.0 | 10.0 | 0.00 | 0.00 | 0.00 | 80 | 1005.2 |
| 20260506004828 | 50 | 163 | 3.0 | 7.0 | 0.00 | 0.00 | 0.00 | 80 | 1006.2 |
| 20260506004150 | 51 | 181 | 1.0 | 10.0 | 0.00 | 0.00 | 0.00 | 79 | 1004.8 |
| 20260506003326 | 51 | 222 | 2.0 | 13.0 | 0.00 | 0.00 | 0.00 | 77 | 1005.9 |
| 20260506002652 | 51 | 116 | 0.0 | 10.0 | 0.00 | 0.00 | 0.00 | 76 | 1004.7 |
| 20260506001823 | 52 | 192 | 0.0 | 5.0 | 0.00 | 0.00 | 0.00 | 76 | 1005.8 |
| 20260506001150 | 52 | 196 | 0.0 | 10.0 | 0.00 | 0.00 | 0.00 | 76 | 1004.6 |
| 20260506000323 | 52 | 195 | 2.0 | 8.0 | 0.00 | 0.00 | 0.00 | 75 | 1005.9 |
| 20260505235650 | 52 | 170 | 0.0 | 10.0 | 0.00 | 0.00 | 0.00 | 75 | 1004.4 |
| 20260505234821 | 52 | 217 | 2.0 | 9.0 | 0.00 | 0.00 | 0.00 | 75 | 1005.3 |
| 20260505234151 | 52 | 152 | 0.0 | 10.0 | 0.00 | 0.00 | 0.00 | 75 | 1004.5 |
| 20260505233322 | 53 | 102 | 3.0 | 11.0 | 0.00 | 0.00 | 0.00 | 75 | 1005.6 |
| 20260505232650 | 53 | 121 | 4.0 | 10.0 | 0.00 | 0.00 | 0.00 | 76 | 1004.5 |
| 20260505231821 | 53 | 196 | 1.0 | 10.0 | 0.00 | 0.00 | 0.00 | 76 | 1006.0 |
| 20260505231151 | 53 | 208 | 1.0 | 10.0 | 0.00 | 0.00 | 0.00 | 76 | 1004.3 |
| 20260505230340 | 53 | 201 | 1.0 | 10.0 | 0.00 | 0.00 | 0.00 | 76 | 1005.4 |
| 20260505225650 | 53 | 170 | 0.0 | 10.0 | 0.00 | 0.00 | 0.00 | 76 | 1004.0 |
| 20260505224820 | 53 | 123 | 1.0 | 8.0 | 0.00 | 0.00 | 0.00 | 76 | 1005.4 |
| 20260505224151 | 53 | 199 | 0.0 | 10.0 | 0.00 | 0.00 | 0.00 | 76 | 1004.4 |
| 20260505223322 | 53 | 185 | 1.0 | 6.0 | 0.00 | 0.00 | 0.00 | 76 | 1005.1 |
| 20260505222651 | 53 | 194 | 5.0 | 10.0 | 0.00 | 0.00 | 0.00 | 76 | 1003.8 |
| 20260505221821 | 54 | 209 | 4.0 | 13.0 | 0.00 | 0.00 | 0.00 | 76 | 1005.0 |
| 20260505221150 | 54 | 141 | 1.0 | 10.0 | 0.00 | 0.00 | 0.00 | 76 | 1003.7 |
| 20260505220341 | 53 | 28 | 3.0 | 12.0 | 0.00 | 0.00 | 0.00 | 76 | 1004.5 |
| 20260505215651 | 54 | 193 | 2.0 | 10.0 | 0.00 | 0.00 | 0.00 | 76 | 1003.2 |
| 20260505214823 | 54 | 213 | 3.0 | 11.0 | 0.00 | 0.00 | 0.00 | 76 | 1004.5 |
| 20260505214150 | 54 | 185 | 5.0 | 10.0 | 0.00 | 0.00 | 0.00 | 76 | 1003.3 |
| 20260505213322 | 54 | 203 | 2.0 | 12.0 | 0.00 | 0.00 | 0.00 | 75 | 1004.6 |
| 20260505212650 | 55 | 177 | 5.0 | 10.0 | 0.00 | 0.00 | 0.00 | 75 | 1003.4 |
| 20260505211821 | 55 | 144 | 4.0 | 11.0 | 0.00 | 0.00 | 0.00 | 75 | 1003.7 |
| 20260505211151 | 55 | 222 | 7.0 | 10.0 | 0.00 | 0.00 | 0.00 | 75 | 1002.3 |
| 20260505210321 | 55 | 203 | 2.0 | 11.0 | 0.00 | 0.00 | 0.00 | 76 | 1003.8 |
| 20260505205650 | 55 | 136 | 0.0 | 10.0 | 0.00 | 0.00 | 0.00 | 77 | 1002.5 |
| 20260505204824 | 55 | 167 | 2.0 | 12.0 | 0.00 | 0.00 | 0.00 | 78 | 1004.1 |
| 20260505204151 | 55 | 134 | 2.0 | 10.0 | 0.00 | 0.00 | 0.00 | 78 | 1002.7 |
| 20260505203343 | 54 | 188 | 2.0 | 11.0 | 0.00 | 0.00 | 0.00 | 79 | 1004.2 |
| 20260505202651 | 54 | 115 | 2.0 | 10.0 | 0.00 | 0.00 | 0.00 | 80 | 1002.9 |
| 20260505201822 | 54 | 147 | 0.0 | 9.0 | 0.00 | 0.00 | 0.00 | 81 | 1004.4 |
| 20260505201150 | 54 | 207 | 4.0 | 10.0 | 0.00 | 0.00 | 0.00 | 81 | 1002.7 |
| 20260505200343 | 55 | 196 | 2.0 | 17.0 | 0.00 | 0.00 | 0.00 | 82 | 1003.7 |
| 20260505195651 | 55 | 210 | 3.0 | 10.0 | 0.00 | 0.00 | 0.00 | 81 | 1002.3 |
| 20260505194821 | 56 | 205 | 1.0 | 9.0 | 0.00 | 0.00 | 0.00 | 81 | 1003.2 |
| 20260505194150 | 56 | 188 | 1.0 | 10.0 | 0.00 | 0.00 | 0.00 | 80 | 1002.1 |
| 20260505193319 | 56 | 239 | 3.0 | 10.0 | 0.00 | 0.00 | 0.00 | 80 | 1003.8 |
| 20260505192652 | 56 | 198 | 1.0 | 10.0 | 0.00 | 0.00 | 0.00 | 80 | 1002.3 |
| 20260505191818 | 56 | 209 | 2.0 | 12.0 | 0.00 | 0.00 | 0.00 | 81 | 1003.7 |
| 20260505191151 | 57 | 109 | 2.0 | 10.0 | 0.00 | 0.00 | 0.00 | 80 | 1001.7 |
| 20260505190321 | 56 | 184 | 1.0 | 11.0 | 0.00 | 0.00 | 0.00 | 81 | 1003.2 |
| 20260505185650 | 57 | 154 | 1.0 | 10.0 | 0.00 | 0.00 | 0.00 | 80 | 1001.7 |
| 20260505184820 | 57 | 206 | 3.0 | 12.0 | 0.00 | 0.00 | 0.00 | 81 | 1003.2 |
| 20260505184151 | 57 | 241 | 3.0 | 10.0 | 0.00 | 0.00 | 0.00 | 82 | 1001.7 |
| 20260505183320 | 57 | 246 | 3.0 | 10.0 | 0.00 | 0.00 | 0.00 | 82 | 1003.3 |
| 20260505182651 | 57 | 146 | 3.0 | 10.0 | 0.00 | 0.00 | 0.00 | 82 | 1001.5 |
| 20260505181823 | 57 | 197 | 2.0 | 12.0 | 0.00 | 0.00 | 0.00 | 82 | 1003.0 |
| 20260505181150 | 57 | 169 | 2.0 | 10.0 | 0.00 | 0.00 | 0.00 | 81 | 1001.1 |
| 20260505180323 | 57 | 201 | 1.0 | 10.0 | 0.00 | 0.00 | 0.00 | 82 | 1002.6 |
| 20260505175651 | 58 | 156 | 8.0 | 10.0 | 0.00 | 0.00 | 0.00 | 82 | 1000.9 |
| 20260505174822 | 58 | 125 | 2.0 | 10.0 | 0.00 | 0.00 | 0.00 | 82 | 1002.5 |
| 20260505174150 | 58 | 92 | 1.0 | 10.0 | 0.00 | 0.00 | 0.00 | 82 | 1000.7 |
| 20260505173325 | 58 | 59 | 3.0 | 13.0 | 0.00 | 0.00 | 0.00 | 83 | 1002.4 |
| 20260505172650 | 58 | 144 | 4.0 | 10.0 | 0.00 | 0.00 | 0.00 | 83 | 1000.5 |
| 20260505171823 | 58 | 117 | 1.0 | 13.0 | 0.00 | 0.00 | 0.00 | 83 | 1002.3 |
| 20260505171151 | 58 | 89 | 0.0 | 10.0 | 0.00 | 0.00 | 0.00 | 83 | 1000.3 |
| 20260505170320 | 59 | 159 | 6.0 | 19.0 | 0.00 | 0.00 | 0.00 | 82 | 1001.7 |
| 20260505165651 | 60 | 183 | 4.0 | 10.0 | 0.00 | 0.00 | 0.00 | 82 | 999.6 |
| 20260505164823 | 60 | 215 | 4.0 | 13.0 | 0.00 | 0.00 | 0.00 | 81 | 1001.5 |
| 20260505164150 | 62 | 194 | 3.0 | 10.0 | 0.00 | 0.00 | 0.00 | 80 | 999.3 |
| 20260505163323 | 63 | 129 | 6.0 | 16.0 | 0.00 | 0.00 | 0.00 | 80 | 1001.0 |
| 20260505162650 | 64 | 196 | 4.0 | 10.0 | 0.00 | 0.00 | 0.00 | 80 | 998.8 |
| 20260505161815 | 65 | 150 | 4.0 | 14.0 | 0.00 | 0.00 | 0.00 | 79 | 1000.3 |
| 20260505161150 | 67 | 142 | 0.0 | 10.0 | 0.00 | 0.00 | 0.00 | 80 | 997.9 |
| 20260505160333 | 69 | 141 | 4.0 | 13.0 | 0.00 | 0.00 | 0.00 | 76 | 999.4 |
| 20260505153328 | 73 | 188 | 0.0 | 3.0 | 0.00 | 0.00 | 0.00 | 79 | 998.9 |
| 20260505152652 | 73 | 210 | 0.0 | 10.0 | 0.00 | 0.00 | 0.00 | 78 | 997.1 |
| 20260505151825 | 73 | 210 | 0.0 | 1.0 | 0.00 | 0.00 | 0.00 | 77 | 998.6 |
| 20260505151151 | 73 | 214 | 0.0 | 10.0 | 0.00 | 0.00 | 0.00 | 78 | 996.5 |
| 20260505150326 | 73 | 258 | 0.0 | 3.0 | 0.00 | 0.00 | 0.00 | 78 | 998.3 |
| 20260505140324 | 72 | 314 | 0.0 | 2.0 | 0.00 | 0.00 | 0.00 | 78 | 997.9 |
| 20260505124906 | 68 | 196 | 0.0 | 10.0 | 0.00 | 0.00 | 0.00 | 85 | 995.8 |
| 20260505124849 | 68 | 196 | 0.0 | 0.0 | 0.00 | 0.00 | 0.00 | 85 | 997.6 |
| 20260505123407 | 68 | 196 | 0.0 | 10.0 | 0.00 | 0.00 | 0.00 | 84 | 995.7 |
| 20260505123345 | 68 | 196 | 0.0 | 1.0 | 0.00 | 0.00 | 0.00 | 84 | 997.5 |
| 20260505121906 | 68 | 348 | 0.0 | 10.0 | 0.00 | 0.00 | 0.00 | 84 | 995.4 |
| 20260505121822 | 68 | 353 | 0.0 | 1.0 | 0.00 | 0.00 | 0.00 | 84 | 997.2 |
| 20260505120408 | 68 | 270 | 0.0 | 10.0 | 0.00 | 0.00 | 0.00 | 84 | 994.9 |
| 20260505120321 | 68 | 308 | 0.0 | 1.0 | 0.00 | 0.00 | 0.00 | 84 | 996.8 |
| 20260505114907 | 68 | 324 | 0.0 | 10.0 | 0.00 | 0.00 | 0.00 | 83 | 994.5 |
| 20260505114832 | 68 | 324 | 0.0 | 4.0 | 0.00 | 0.00 | 0.00 | 83 | 996.3 |
| 20260505113406 | 68 | 315 | 0.0 | 10.0 | 0.00 | 0.00 | 0.00 | 83 | 994.1 |
| 20260505113313 | 68 | 315 | 0.0 | 1.0 | 0.00 | 0.00 | 0.00 | 83 | 995.9 |
| 20260505111907 | 69 | 318 | 0.0 | 10.0 | 0.00 | 0.00 | 0.00 | 82 | 993.9 |
| 20260505111826 | 69 | 317 | 0.0 | 3.0 | 0.00 | 0.00 | 0.00 | 82 | 995.7 |
| 20260505110407 | 69 | 47 | 0.0 | 10.0 | 0.00 | 0.00 | 0.00 | 81 | 993.8 |
| 20260505110345 | 69 | 47 | 0.0 | 3.0 | 0.00 | 0.00 | 0.00 | 81 | 995.5 |
| 20260505101907 | 70 | 33 | 1.0 | 10.0 | 0.00 | 0.00 | 0.00 | 80 | 993.6 |
| 20260505101840 | 70 | 19 | 0.0 | 4.0 | 0.00 | 0.00 | 0.00 | 80 | 995.3 |
| 20260505100407 | 70 | 286 | 0.0 | 10.0 | 0.00 | 0.00 | 0.00 | 79 | 993.7 |
| 20260505100311 | 70 | 221 | 1.0 | 7.0 | 0.00 | 0.00 | 0.00 | 79 | 995.4 |
| 20260505094906 | 70 | 40 | 1.0 | 10.0 | 0.00 | 0.00 | 0.00 | 79 | 993.5 |
| 20260505094813 | 70 | 42 | 2.0 | 7.0 | 0.00 | 0.00 | 0.00 | 79 | 995.2 |
| 20260505093407 | 70 | 68 | 0.0 | 10.0 | 0.00 | 0.00 | 0.00 | 80 | 993.6 |
| 20260505093351 | 70 | 52 | 0.0 | 6.0 | 0.00 | 0.00 | 0.00 | 79 | 995.3 |
| 20260505091906 | 70 | 338 | 0.0 | 10.0 | 0.00 | 0.00 | 0.00 | 79 | 993.8 |
| 20260505091829 | 70 | 57 | 0.0 | 5.0 | 0.00 | 0.00 | 0.00 | 79 | 995.5 |
| 20260505090408 | 70 | 336 | 1.0 | 10.0 | 0.00 | 0.00 | 0.00 | 80 | 993.9 |
| 20260505090322 | 70 | 31 | 1.0 | 5.0 | 0.00 | 0.00 | 0.00 | 80 | 995.6 |
| 20260505084907 | 70 | 50 | 1.0 | 10.0 | 0.00 | 0.00 | 0.00 | 79 | 993.9 |
| 20260505084822 | 70 | 319 | 0.0 | 5.0 | 0.00 | 0.00 | 0.00 | 79 | 995.6 |
| 20260505083406 | 70 | 341 | 0.0 | 10.0 | 0.00 | 0.00 | 0.00 | 79 | 993.9 |
| 20260505083338 | 70 | 331 | 0.0 | 4.0 | 0.00 | 0.00 | 0.00 | 79 | 995.8 |
| 20260505081907 | 70 | 338 | 0.0 | 10.0 | 0.00 | 0.00 | 0.00 | 79 | 994.1 |
| 20260505081812 | 70 | 316 | 0.0 | 6.0 | 0.00 | 0.00 | 0.00 | 79 | 995.9 |
| 20260505080407 | 71 | 38 | 1.0 | 10.0 | 0.00 | 0.00 | 0.00 | 79 | 994.2 |
| 20260505080311 | 71 | 334 | 1.0 | 6.0 | 0.00 | 0.00 | 0.00 | 79 | 996.0 |
| 20260505074906 | 70 | 48 | 2.0 | 10.0 | 0.00 | 0.00 | 0.00 | 79 | 994.3 |
| 20260505074828 | 70 | 292 | 2.0 | 6.0 | 0.00 | 0.00 | 0.00 | 79 | 996.0 |
| 20260505073408 | 70 | 353 | 1.0 | 10.0 | 0.00 | 0.00 | 0.00 | 79 | 994.4 |
| 20260505073324 | 70 | 30 | 1.0 | 7.0 | 0.00 | 0.00 | 0.00 | 79 | 996.1 |
| 20260505071907 | 70 | 341 | 1.0 | 10.0 | 0.00 | 0.00 | 0.00 | 79 | 994.8 |
| 20260505071831 | 70 | 52 | 2.0 | 14.0 | 0.00 | 0.00 | 0.00 | 79 | 996.5 |
| 20260505070406 | 71 | 317 | 0.0 | 10.0 | 0.00 | 0.00 | 0.00 | 78 | 994.9 |
| 20260505070321 | 71 | 339 | 2.0 | 7.0 | 0.00 | 0.00 | 0.00 | 78 | 996.6 |
| 20260505064906 | 71 | 284 | 2.0 | 10.0 | 0.00 | 0.00 | 0.00 | 78 | 995.1 |
| 20260505064819 | 71 | 337 | 2.0 | 11.0 | 0.00 | 0.00 | 0.00 | 78 | 996.8 |
| 20260505063406 | 71 | 305 | 2.0 | 10.0 | 0.00 | 0.00 | 0.00 | 78 | 995.2 |
| 20260505063313 | 71 | 4 | 1.0 | 7.0 | 0.00 | 0.00 | 0.00 | 78 | 996.9 |
| 20260505061906 | 71 | 38 | 2.0 | 10.0 | 0.00 | 0.00 | 0.00 | 78 | 995.3 |
| 20260505061817 | 71 | 350 | 2.0 | 8.0 | 0.00 | 0.00 | 0.00 | 78 | 997.0 |
| 20260505060407 | 71 | 337 | 2.0 | 10.0 | 0.00 | 0.00 | 0.00 | 78 | 995.6 |
| 20260505060328 | 71 | 319 | 1.0 | 8.0 | 0.00 | 0.00 | 0.00 | 78 | 997.3 |
| 20260505054907 | 71 | 347 | 0.0 | 10.0 | 0.00 | 0.00 | 0.00 | 78 | 995.8 |
| 20260505054828 | 71 | 9 | 2.0 | 9.0 | 0.00 | 0.00 | 0.00 | 78 | 997.5 |
| 20260505053407 | 70 | 308 | 4.0 | 10.0 | 0.00 | 0.00 | 0.00 | 78 | 995.7 |
| 20260505053326 | 70 | 312 | 1.0 | 5.0 | 0.00 | 0.00 | 0.00 | 78 | 997.5 |
| 20260505051907 | 71 | 324 | 2.0 | 10.0 | 0.00 | 0.00 | 0.00 | 77 | 995.8 |
| 20260505051826 | 71 | 42 | 1.0 | 8.0 | 0.00 | 0.00 | 0.00 | 77 | 997.5 |
| 20260505050406 | 71 | 104 | 0.0 | 10.0 | 0.00 | 0.00 | 0.00 | 77 | 995.9 |
| 20260505050329 | 71 | 341 | 3.0 | 7.0 | 0.00 | 0.00 | 0.00 | 77 | 997.7 |
| 20260505040407 | 72 | 316 | 5.0 | 10.0 | 0.00 | 0.00 | 0.00 | 74 | 996.3 |
| 20260505040321 | 72 | 116 | 2.0 | 9.0 | 0.00 | 0.00 | 0.00 | 74 | 998.0 |
| 20260505034906 | 72 | 347 | 1.0 | 10.0 | 0.00 | 0.00 | 0.00 | 73 | 996.2 |
| 20260505034813 | 72 | 73 | 3.0 | 11.0 | 0.00 | 0.00 | 0.00 | 73 | 997.9 |
| 20260505033407 | 73 | 250 | 1.0 | 10.0 | 0.00 | 0.00 | 0.00 | 73 | 996.2 |
| 20260505033314 | 73 | 66 | 3.0 | 12.0 | 0.00 | 0.00 | 0.00 | 73 | 997.9 |
| 20260505031907 | 73 | 4 | 2.0 | 10.0 | 0.00 | 0.00 | 0.00 | 72 | 996.2 |
| 20260505031851 | 73 | 313 | 3.0 | 12.0 | 0.00 | 0.00 | 0.00 | 72 | 997.9 |
| 20260505030407 | 74 | 316 | 4.0 | 10.0 | 0.00 | 0.00 | 0.00 | 71 | 996.2 |
| 20260505030326 | 74 | 350 | 5.0 | 11.0 | 0.00 | 0.00 | 0.00 | 71 | 997.9 |
| 20260505024906 | 74 | 22 | 2.0 | 10.0 | 0.00 | 0.00 | 0.00 | 70 | 996.2 |
| 20260505024824 | 74 | 346 | 4.0 | 8.0 | 0.00 | 0.00 | 0.00 | 70 | 997.9 |
| 20260505023408 | 74 | 28 | 3.0 | 10.0 | 0.00 | 0.00 | 0.00 | 69 | 996.1 |
| 20260505023320 | 74 | 33 | 4.0 | 11.0 | 0.00 | 0.00 | 0.00 | 69 | 997.7 |
| 20260505021906 | 75 | 35 | 14.0 | 10.0 | 0.00 | 0.00 | 0.00 | 69 | 995.8 |
| 20260505021817 | 75 | 315 | 3.0 | 10.0 | 0.00 | 0.00 | 0.00 | 69 | 997.6 |
| 20260505020406 | 75 | 55 | 1.0 | 10.0 | 0.00 | 0.00 | 0.00 | 68 | 995.9 |
| 20260505020316 | 75 | 312 | 4.0 | 16.0 | 0.00 | 0.00 | 0.00 | 68 | 997.7 |